Location: Cañada de la Miga
(34.7595°N, 106.2317°W)
Time: 11:41:59
(UTC+00:00)

Transit 4A - Pass Details

Date: 12 December 2021
Orbit: 863 x 981 km, 66.8° (Epoch: 26 January)

Event Time Altitude Azimuth Distance (km) Brightness Sun altitude
Rises 00:28:10 0° 214° (SW) 3,439 12.0 -7.1°
Reaches altitude 10° 00:30:39 10° 217° (SW) 2,514 11.2 -7.6°
Maximum altitude 00:36:24 64° 299° (WNW) 981 8.3 -8.7°
Drops below altitude 10° 00:42:21 10° 20° (NNE) 2,593 9.9 -9.8°
Enters shadow 00:44:41 - 23° (NNE) 3,460 10.5 -10.2°
